Temp
94 94 93 92 91 89 90 90 90 91 91 88 90 91 90 91 91 90 89 89 87 87 87 87 86 86 90 93 92 89 90 89 86 92 94 93 87 86 90 87 87 86 86
93 92 91 90 89 88 88 90 90 87 86 86 86 87 87 88 85 85 86 88 85 84 82 84 84 88 84 84 86 83 85 86 85 81 84 87 84 87 86 85 87 91 89
91 90 87 83 81 79 79 80 81 81 82 83 83 83 85 84 84 83 84 84 84 85 85 84 83 82 81 84 81 80 84 85 84 80 80 82 90 89 85 83 84 85 88
90 85 81 81 79 79 74 78 77 77 75 76 78 79 82 83 84 83 82 82 83 84 83 84 84 83 82 82 81 81 82 81 84 83 84 85 88 89 85 84 85 87 85
83 82 81 81 81 79 78 79 79 78 76 74 73 75 78 82 86 77 81 83 82 82 84 85 87 82 72 75 81 82 79 81 85 85 85 85 85 85 81 86 86 86 86
74 75 79 81 79 77 77 78 76 74 72 74 74 73 75 82 66 67 68 79 81 81 80 83 84 80 80 69 69 69 72 75 76 81 83 82 81 83 87 86 85 79 74
68 68 67 70 70 73 73 68 73 73 74 75 74 76 74 76 65 64 66 78 79 80 80 80 83 88 81 83 76 70 70 67 67 76 74 77 78 81 81 79 80 78 76
69 69 70 73 75 73 73 71 70 73 72 74 74 71 71 72 61 61 63 73 78 78 79 80 79 79 78 75 75 77 79 81 83 85 81 81 83 83 82 82 80 79 82
75 74 75 76 75 74 72 71 71 70 71 73 75 74 74 73 61 60 64 73 77 76 78 77 77 76 65 59 73 75 76 79 80 68 67 66 63 63 67 79 80 81 77
77 76 76 76 76 74 73 72 72 72 73 77 74 74 66 72 61 58 63 74 73 75 76 77 69 72 60 56 70 72 72 76 78 80 81 77 69 75 64 76 81 79 77
77 76 75 75 74 74 73 73 73 73 74 74 74 75 74 71 71 58 57 70 73 73 74 77 80 61 56 53 54 69 70 71 71 76 79 83 85 86 88 84 83 76 69
75 74 73 73 75 74 71 71 71 70 70 70 70 72 78 75 63 62 57 57 62 70 72 77 77 55 55 55 58 62 57 58 76 78 79 81 83 85 87 88 83 81 81
72 72 72 71 71 70 69 69 74 72 72 72 74 74 75 77 76 61 59 58 58 67 74 69 60 57 55 59 57 55 54 75 78 77 78 80 82 85 83 77 81 80 79
70 71 72 72 70 71 75 76 75 74 74 74 73 73 75 75 76 69 68 69 61 63 66 69 68 63 61 65 63 73 79 80 79 79 79 81 83 82 82 83 81 77 75
71 71 72 75 73 74 73 72 72 72 66 69 71 72 72 72 65 56 58 68 70 64 57 70 73 74 75 76 78 79 79 79 78 79 79 79 80 81 81 83 82 81 74
70 74 74 76 76 74 73 74 57 57 54 50 48 55 70 57 51 48 47 45 45 45 61 68 70 72 69 68 68 72 75 75 78 77 78 78 78 79 79 81 82 78 72
73 74 74 70 75 73 73 72 70 68 54 52 49 48 45 46 46 45 45 43 44 47 65 71 71 67 63 61 62 63 66 69 68 70 71 69 71 73 74 76 78 79 78
72 56 75 76 76 74 74 73 73 72 71 73 56 55 48 47 45 44 44 46 68 62 68 69 66 68 67 63 61 60 62 63 67 67 67 68 68 70 68 72 74 71 73
73 77 76 77 76 70 72 74 74 74 72 72 74 61 53 47 47 47 45 64 65 68 70 69 66 67 65 62 62 62 60 59 61 64 65 63 66 65 63 67 71 62 66
73 64 63 74 75 74 74 73 73 71 70 69 69 67 70 63 68 70 69 64 64 64 68 59 60 61 61 59 59 57 57 57 57 57 57 58 60 64 60 61 67 70 74
76 76 68 74 74 73 72 71 69 69 68 67 67 63 46 69 69 65 66 68 64 59 59 56 56 58 57 55 54 54 55 55 56 58 57 56 56 59 62 61 64 65 67
76 76 75 72 72 71 69 72 71 69 69 70 72 71 52 70 71 70 67 63 59 58 57 55 54 56 52 52 52 52 52 52 54 55 56 56 56 55 56 56 61 64 65
77 77 76 75 72 65 68 68 69 70 72 73 73 73 73 72 70 66 63 59 56 55 56 53 52 51 52 51 51 50 49 49 50 50 50 50 51 53 54 54 55 56 58
77 76 75 74 71 72 70 70 67 63 70 73 73 72 71 71 70 67 62 58 55 54 53 52 51 49 49 49 49 50 50 50 46 45 46 46 47 48 50 53 56 58 61
76 74 73 70 69 71 69 70 70 72 71 73 72 72 72 70 69 64 60 54 53 52 51 51 50 49 48 48 48 49 45 35 38 39 44 45 45 46 47 49 50 53 56
73 69 69 68 68 71 70 69 67 72 72 72 72 71 70 69 67 62 60 58 56 52 50 50 49 49 49 48 48 43 37 34 39 34 40 44 45 48 49 49 50 50 52
MSLP
1007.79 1008.36 1009.20 1010.05 1010.68 1011.32 1011.67 1012.06 1012.48 1012.75 1012.95 1013.34 1013.37 1013.25 1013.25 1013.23 1013.34 1013.45 1013.43 1013.40 1013.63 1013.76 1013.91 1013.93 1013.85 1013.96 1013.70 1013.26 1013.29 1013.39 1013.30 1013.16 1012.45 1011.59 1011.75 1012.06 1012.61 1012.50 1012.78 1013.28 1013.30 1013.55 1013.58
1007.53 1008.01 1008.75 1009.64 1010.28 1010.86 1011.39 1011.62 1012.11 1012.53 1013.19 1013.46 1013.76 1013.62 1013.70 1013.64 1013.85 1013.75 1013.73 1013.60 1013.81 1013.87 1014.08 1013.87 1013.89 1013.84 1014.11 1014.19 1014.09 1014.01 1013.80 1013.58 1013.17 1012.40 1012.16 1011.86 1012.24 1011.98 1012.40 1012.67 1012.48 1012.29 1012.53
1007.38 1008.08 1008.79 1009.71 1010.61 1011.32 1011.83 1012.34 1012.77 1013.24 1013.45 1013.73 1014.16 1014.36 1014.12 1014.24 1014.10 1014.18 1014.03 1013.90 1013.82 1013.83 1013.89 1014.00 1013.98 1014.07 1014.06 1014.00 1014.25 1013.89 1013.57 1013.28 1013.15 1012.99 1012.25 1011.95 1011.46 1011.42 1011.93 1012.46 1012.22 1012.05 1011.98
1007.88 1008.61 1009.28 1009.80 1010.62 1011.24 1012.00 1012.34 1012.87 1013.00 1013.29 1013.50 1013.98 1014.61 1014.77 1014.51 1014.33 1014.44 1014.49 1014.33 1014.17 1013.85 1013.68 1013.70 1013.66 1013.74 1013.69 1013.83 1013.94 1013.92 1013.77 1013.53 1012.98 1012.58 1012.17 1011.74 1010.92 1010.59 1011.62 1011.64 1011.08 1010.95 1011.20
1009.98 1010.58 1010.34 1010.50 1010.84 1011.23 1011.59 1011.77 1012.23 1012.26 1012.40 1012.05 1012.30 1012.61 1014.35 1014.84 1014.35 1014.88 1014.56 1014.09 1013.89 1014.02 1013.75 1013.29 1012.87 1013.12 1013.76 1013.95 1013.92 1013.48 1013.61 1013.27 1012.61 1012.10 1011.53 1011.31 1011.05 1010.79 1010.95 1010.70 1010.29 1010.25 1010.36
1011.12 1012.12 1012.10 1011.62 1011.44 1011.73 1011.74 1011.91 1012.88 1014.13 1014.25 1013.43 1013.68 1013.26 1013.17 1014.25 1014.86 1015.14 1015.26 1014.52 1014.17 1013.97 1013.60 1013.22 1012.99 1013.03 1012.76 1013.24 1013.53 1013.68 1013.84 1013.36 1013.00 1012.43 1011.78 1011.15 1010.82 1010.66 1010.07 1009.79 1009.79 1010.01 1009.89
1011.12 1010.15 1013.25 1013.84 1013.92 1013.02 1012.56 1012.59 1012.13 1012.98 1014.30 1013.68 1013.68 1014.02 1014.38 1014.17 1014.56 1014.79 1015.01 1014.69 1013.97 1013.42 1013.40 1013.17 1012.86 1012.43 1012.87 1012.71 1012.98 1013.06 1012.74 1012.54 1012.50 1012.38 1011.78 1011.29 1010.85 1010.80 1010.64 1010.38 1010.05 1010.21 1010.00
1012.16 1011.97 1012.88 1013.39 1014.05 1014.29 1013.41 1013.09 1013.16 1013.58 1014.43 1013.31 1013.73 1014.30 1014.68 1014.47 1014.75 1014.12 1014.94 1014.78 1014.17 1013.57 1013.33 1013.23 1013.06 1013.19 1013.17 1013.40 1013.31 1012.99 1012.25 1011.67 1011.32 1011.13 1010.86 1010.80 1010.78 1010.68 1010.55 1010.17 1010.02 1009.73 1009.41
1012.39 1012.92 1013.15 1013.47 1013.75 1013.83 1013.74 1013.54 1013.30 1012.96 1014.48 1013.97 1013.57 1014.34 1014.35 1014.18 1014.83 1015.19 1015.22 1014.66 1013.89 1013.89 1013.45 1013.45 1013.39 1013.37 1013.43 1013.73 1013.35 1012.72 1011.91 1011.23 1010.36 1010.45 1010.50 1010.89 1010.70 1010.84 1010.83 1010.51 1009.31 1008.57 1008.63
1012.75 1013.40 1013.70 1013.83 1014.18 1013.91 1013.71 1013.53 1013.77 1013.33 1013.71 1013.64 1014.14 1014.54 1014.71 1014.34 1014.97 1015.03 1014.56 1014.32 1014.15 1013.72 1013.31 1013.27 1012.88 1012.92 1013.16 1013.59 1013.57 1012.86 1011.95 1011.07 1011.04 1010.58 1010.37 1010.18 1010.03 1010.17 1009.99 1010.05 1009.16 1008.13 1008.12
1013.16 1013.62 1013.84 1013.88 1014.07 1013.78 1013.48 1013.14 1013.12 1013.22 1013.67 1013.66 1013.80 1013.67 1014.05 1014.35 1014.28 1014.73 1014.85 1014.49 1014.11 1013.78 1013.43 1012.89 1012.61 1012.88 1013.07 1013.39 1013.51 1013.05 1012.09 1011.65 1011.15 1010.64 1010.00 1009.13 1008.54 1008.27 1008.01 1008.10 1008.04 1008.38 1008.39
1013.79 1014.08 1014.33 1014.39 1013.98 1013.99 1013.95 1013.99 1013.89 1014.13 1013.92 1013.51 1013.53 1013.65 1013.21 1013.81 1014.24 1014.54 1014.85 1014.97 1014.79 1014.32 1013.51 1012.99 1012.54 1012.93 1013.07 1012.92 1012.85 1012.19 1011.87 1011.60 1010.43 1009.45 1008.88 1008.00 1007.70 1007.25 1006.89 1006.93 1007.36 1007.75 1007.42
1014.24 1014.36 1014.57 1014.52 1014.54 1014.50 1014.32 1014.44 1013.92 1014.28 1014.11 1013.49 1013.44 1013.38 1013.30 1013.35 1013.68 1014.21 1014.44 1014.73 1014.72 1014.44 1013.70 1013.30 1013.35 1012.95 1012.71 1012.20 1011.50 1011.61 1011.30 1010.28 1009.26 1008.53 1007.91 1007.42 1007.13 1006.89 1006.89 1007.02 1007.08 1006.86 1006.79
1014.64 1014.70 1014.75 1014.73 1014.69 1014.87 1014.54 1014.41 1014.14 1013.94 1013.83 1013.81 1013.72 1013.42 1013.15 1013.18 1013.08 1014.12 1014.42 1014.33 1014.27 1014.33 1014.00 1013.36 1012.93 1012.57 1011.88 1011.31 1011.03 1009.99 1009.20 1008.66 1008.15 1007.75 1007.38 1007.04 1006.85 1006.38 1006.30 1005.99 1005.81 1005.73 1005.87
1014.78 1014.91 1014.88 1014.69 1014.73 1014.67 1014.56 1014.42 1014.18 1014.27 1014.97 1014.89 1014.31 1013.91 1013.49 1013.46 1014.57 1015.10 1015.35 1015.02 1014.62 1014.51 1014.70 1013.16 1011.96 1010.99 1010.11 1009.70 1009.05 1008.56 1008.36 1008.02 1007.62 1007.15 1006.96 1006.61 1006.15 1005.84 1005.55 1005.43 1004.94 1004.77 1004.97
1014.85 1014.62 1014.58 1014.33 1014.28 1014.31 1014.12 1013.97 1014.57 1014.82 1014.91 1015.09 1015.24 1015.17 1014.42 1014.49 1014.86 1015.38 1015.63 1015.42 1015.13 1015.03 1014.07 1012.46 1011.17 1010.42 1010.44 1010.13 1009.90 1009.14 1008.62 1008.00 1007.48 1007.32 1006.87 1006.31 1005.88 1005.55 1005.24 1004.74 1004.38 1004.37 1004.43
1014.74 1014.71 1014.64 1014.58 1014.45 1014.28 1014.04 1013.91 1013.76 1013.87 1014.03 1014.10 1014.40 1014.69 1014.99 1014.98 1015.13 1015.26 1015.20 1015.00 1014.27 1014.37 1013.14 1011.32 1010.54 1010.45 1011.02 1010.99 1011.10 1010.70 1010.22 1009.64 1009.10 1008.43 1007.79 1007.35 1006.65 1006.14 1005.43 1004.88 1004.44 1004.10 1003.60
1014.82 1015.12 1014.54 1014.52 1014.45 1014.33 1014.04 1013.93 1013.66 1013.32 1013.21 1013.11 1013.75 1014.18 1014.35 1014.57 1014.68 1014.55 1014.25 1014.10 1012.62 1012.20 1011.78 1010.79 1010.79 1010.78 1010.86 1011.00 1010.98 1010.58 1010.15 1009.92 1009.07 1008.29 1007.75 1007.42 1007.34 1006.81 1006.20 1005.39 1004.37 1004.09 1003.67
1014.60 1014.30 1014.28 1014.24 1014.23 1014.42 1014.10 1013.61 1013.25 1013.16 1013.14 1013.04 1012.91 1013.33 1013.47 1013.97 1013.89 1013.65 1013.52 1013.52 1012.64 1012.01 1011.35 1011.06 1010.98 1010.80 1010.66 1010.75 1010.54 1010.12 1009.82 1009.44 1009.10 1008.52 1007.73 1007.61 1007.18 1006.89 1006.85 1006.19 1005.01 1004.22 1003.66
1014.18 1014.58 1014.75 1014.00 1013.64 1013.46 1013.14 1012.91 1012.73 1012.73 1012.78 1012.83 1012.85 1012.91 1012.84 1012.89 1012.68 1012.41 1011.76 1011.92 1011.91 1011.75 1011.27 1011.82 1011.67 1011.32 1010.73 1010.67 1010.42 1010.21 1009.74 1009.27 1008.74 1008.47 1008.30 1007.98 1007.36 1006.64 1006.60 1006.24 1005.43 1004.11 1002.87
1013.12 1013.16 1013.79 1013.62 1013.05 1012.74 1012.73 1012.68 1012.63 1012.54 1012.41 1012.33 1012.29 1012.33 1012.84 1012.71 1012.32 1011.97 1011.90 1011.75 1011.79 1012.00 1011.99 1012.10 1011.99 1011.58 1011.29 1011.01 1010.60 1010.00 1009.44 1008.98 1008.63 1008.26 1008.02 1007.87 1007.39 1006.51 1006.00 1005.64 1004.94 1004.35 1003.17
1012.93 1012.65 1012.57 1012.45 1012.39 1012.29 1012.25 1012.15 1012.05 1011.99 1011.79 1011.51 1011.34 1011.34 1011.83 1011.70 1011.18 1011.22 1011.56 1011.84 1012.25 1012.23 1012.12 1012.06 1011.89 1011.59 1011.38 1010.91 1010.39 1009.88 1009.40 1009.05 1008.75 1008.36 1007.94 1007.55 1007.11 1006.65 1006.18 1005.67 1004.73 1003.95 1003.33
1012.23 1011.86 1011.72 1011.51 1011.60 1011.67 1011.69 1011.52 1011.49 1011.49 1011.25 1011.07 1010.81 1010.67 1010.72 1010.80 1010.91 1011.33 1011.85 1012.09 1012.22 1012.00 1011.85 1011.78 1011.53 1011.21 1010.83 1010.58 1010.11 1009.79 1009.39 1009.07 1008.84 1008.60 1008.20 1007.77 1007.22 1006.74 1006.20 1005.56 1004.88 1004.20 1003.58
1011.58 1011.34 1011.27 1011.20 1011.21 1011.18 1010.96 1011.02 1011.16 1010.91 1011.08 1010.53 1010.51 1010.58 1010.59 1010.66 1010.66 1010.96 1011.68 1011.96 1012.01 1011.86 1011.67 1011.44 1011.19 1010.92 1010.51 1010.21 1009.82 1009.51 1009.15 1009.04 1009.13 1008.77 1008.32 1007.72 1007.12 1006.50 1005.85 1005.12 1004.39 1003.70 1003.00
1011.19 1011.15 1011.08 1011.06 1011.07 1010.91 1011.21 1010.80 1010.62 1010.70 1010.34 1010.14 1010.25 1010.30 1010.26 1010.43 1010.58 1011.08 1011.48 1011.90 1011.78 1011.58 1011.36 1011.14 1010.84 1010.58 1010.24 1009.86 1009.62 1009.34 1009.04 1008.99 1008.77 1008.45 1007.94 1007.31 1006.68 1006.10 1005.48 1004.80 1004.14 1003.54 1002.94
1011.25 1011.21 1011.08 1010.92 1010.83 1010.73 1010.61 1010.76 1010.91 1010.12 1009.92 1009.95 1010.03 1010.00 1010.00 1010.15 1010.47 1011.01 1011.08 1011.20 1011.18 1011.20 1011.00 1010.72 1010.43 1010.15 1009.79 1009.52 1009.22 1008.97 1008.66 1008.29 1007.96 1007.69 1007.41 1006.65 1005.98 1005.20 1004.57 1004.00 1003.46 1002.97 1002.40
Wind_Speed
16 15 13 12 12 11 10 8 7 7 6 6 8 7 6 7 6 6 7 6 6 7 7 8 9 8 7 7 6 6 8 9 11 12 5 4 6 7 5 7 7 9 8
14 13 13 11 11 10 10 9 6 5 2 2 4 5 5 3 2 4 6 4 5 7 8 7 8 6 7 7 8 7 10 10 11 13 11 9 9 7 8 9 8 8 8
15 15 13 13 12 11 10 8 7 6 6 6 4 3 1 1 1 2 3 4 5 5 6 8 8 8 8 7 6 4 8 5 7 8 8 7 6 3 6 9 8 9 9
14 15 15 15 15 14 11 13 12 11 9 8 7 3 4 2 0 3 4 5 6 6 7 8 7 7 7 6 7 7 7 7 8 8 9 9 8 4 4 8 8 8 8
7 9 12 13 13 14 13 13 14 13 12 12 12 10 3 7 1 6 8 7 8 9 9 9 8 5 2 6 7 9 8 9 9 10 10 8 8 8 8 8 9 7 9
13 9 6 7 10 9 11 11 8 6 3 6 5 5 9 5 7 3 5 9 9 10 10 9 10 9 9 8 12 11 8 9 11 10 11 11 9 9 8 8 9 7 8
12 18 8 9 8 1 8 9 12 11 6 7 6 3 1 1 5 5 6 9 10 9 10 10 10 8 11 10 8 8 12 14 14 10 12 12 12 10 10 10 10 9 9
8 7 7 9 5 6 7 10 9 7 4 6 5 4 5 3 3 8 7 7 9 9 9 10 9 10 8 9 11 12 11 10 11 9 11 11 11 9 9 9 10 11 11
8 6 5 2 4 4 4 6 6 9 5 4 5 5 4 3 4 2 6 7 7 9 9 8 9 9 3 8 10 13 13 12 10 10 8 8 10 10 9 9 11 11 11
8 6 4 4 3 4 5 5 5 5 4 2 4 3 3 4 7 2 3 5 8 8 8 10 10 10 6 5 10 12 14 12 13 14 13 11 13 12 16 11 10 11 9
6 5 5 5 4 6 7 7 6 5 2 1 2 0 2 2 1 2 2 5 7 8 9 9 9 7 3 2 6 11 13 13 13 12 13 13 11 11 10 12 6 6 7
5 4 3 3 4 4 5 5 5 6 4 4 5 6 3 2 4 2 1 4 6 9 10 10 10 12 13 13 10 12 9 8 11 11 12 12 11 11 10 8 4 7 7
4 3 3 4 4 5 4 4 3 2 5 4 4 4 3 2 3 10 5 5 7 7 9 11 15 15 17 14 21 13 9 11 11 11 12 11 11 10 11 6 11 13 11
3 2 1 1 2 2 3 1 2 3 3 3 3 3 4 4 3 6 4 4 8 7 4 8 13 18 20 20 13 13 11 10 10 10 11 11 11 11 11 11 12 8 7
2 2 1 1 1 1 1 4 5 5 6 6 6 6 6 6 7 6 5 8 9 9 11 12 12 11 11 11 11 11 10 10 10 10 11 11 11 11 11 11 11 11 9
5 3 2 2 2 3 4 3 9 6 7 5 7 5 7 3 6 5 6 7 11 5 9 12 11 10 10 10 10 12 12 11 10 10 11 11 11 11 12 12 12 10 7
2 2 3 3 3 4 4 5 6 3 12 10 8 7 9 11 8 6 7 8 15 8 10 10 10 7 8 8 9 10 12 13 15 11 11 10 10 12 11 12 13 13 13
4 2 3 1 2 3 3 5 5 5 6 6 6 9 9 10 8 10 11 8 12 5 9 9 8 8 10 9 9 8 10 11 12 9 9 10 11 13 12 14 12 10 11
4 2 2 3 3 3 5 5 5 4 5 6 6 8 10 10 13 15 9 9 9 12 10 11 9 10 9 9 9 10 10 9 10 12 9 9 11 9 11 14 15 15 15
7 5 5 6 5 5 5 5 6 6 7 6 7 5 8 9 7 12 10 6 7 8 8 8 10 10 11 10 9 8 9 9 7 6 7 9 11 9 8 10 13 15 15
5 4 9 8 8 6 5 6 6 6 7 5 5 1 6 7 10 8 8 10 9 6 8 6 8 10 9 8 8 9 9 7 7 8 7 8 8 10 9 9 12 13 13
6 7 7 8 7 7 5 5 7 6 7 7 7 6 13 7 8 8 8 7 7 8 5 5 7 9 7 8 7 7 7 8 8 8 8 8 8 8 9 9 11 12 12
9 10 10 10 7 6 7 9 4 7 5 9 7 7 7 6 7 6 8 7 6 5 5 5 6 7 6 6 6 6 6 6 6 7 8 8 9 9 8 9 10 9 9
11 10 10 9 8 9 8 6 4 6 6 8 7 6 6 7 8 9 7 7 6 5 5 5 5 8 7 6 6 6 5 5 7 8 10 8 9 10 9 10 11 13 13
9 8 9 8 9 5 8 7 7 5 8 5 6 6 6 7 7 7 6 4 5 5 5 5 5 7 7 9 9 10 7 10 9 10 8 10 11 13 10 9 11 10 13
9 9 8 7 6 6 7 5 6 8 5 5 5 6 7 7 6 5 6 6 5 5 6 4 6 8 9 7 9 10 11 11 10 9 8 9 10 10 9 10 13 9 12
Wind_Direction
200 185 186 190 189 200 210 207 216 232 248 263 259 257 264 266 265 265 254 267 248 256 269 274 270 279 285 294 304 309 288 279 281 286 279 252 238 226 233 207 222 226 221
194 172 177 173 178 187 206 202 201 193 205 337 299 265 264 264 290 277 262 270 253 248 244 249 266 279 298 281 273 269 278 284 279 279 271 232 212 211 232 233 228 229 233
174 168 155 151 144 133 132 132 135 125 103 86 51 0 41 351 52 329 270 238 241 254 276 279 280 280 278 278 292 282 262 259 255 263 282 260 256 252 234 236 242 240 246
167 160 154 148 135 132 126 135 133 129 127 121 103 38 328 312 252 270 293 286 274 275 271 273 273 273 280 274 265 265 261 281 273 266 272 284 281 254 252 281 261 226 243
148 146 138 139 146 147 153 151 158 155 162 155 147 134 11 298 333 332 304 296 304 288 277 275 276 338 358 258 282 290 303 274 288 288 277 258 248 257 244 276 277 296 281
67 44 56 128 139 154 151 137 111 76 67 103 90 122 149 253 84 22 312 294 284 288 296 304 305 282 263 188 212 235 263 275 275 276 283 284 291 269 269 273 278 279 281
118 107 323 327 325 198 142 127 135 140 152 126 106 87 352 161 76 17 339 297 298 299 300 301 300 315 331 310 322 244 242 224 231 267 280 278 291 289 292 288 273 269 262
67 91 177 205 203 195 142 126 132 124 173 139 160 174 231 166 101 34 335 279 300 300 300 304 309 308 344 341 325 311 303 296 283 263 256 259 265 283 272 274 290 271 256
106 93 84 99 221 193 126 114 116 131 176 162 133 202 222 131 80 36 324 308 293 297 296 295 298 295 41 27 320 312 312 310 301 233 244 267 278 275 261 279 267 270 266
113 114 93 85 86 86 91 102 117 114 121 130 160 202 146 180 148 116 21 304 295 300 300 286 240 254 60 20 319 307 301 304 312 322 307 260 240 246 231 231 267 271 274
106 97 85 59 37 26 25 30 26 30 21 29 324 5 253 289 294 75 58 315 308 306 301 298 298 86 45 316 270 291 284 308 299 292 286 282 275 266 252 217 239 263 263
118 108 85 50 13 49 20 8 359 337 300 328 327 296 261 262 200 216 7 294 318 292 295 297 298 360 322 302 276 262 261 274 274 276 277 275 279 284 277 281 314 291 249
138 110 79 44 31 20 4 349 288 263 306 314 304 297 296 302 285 172 225 260 246 271 287 315 309 294 283 279 254 261 249 271 269 272 274 275 274 276 281 282 270 250 245
130 107 62 27 350 9 270 220 312 333 320 293 278 281 316 314 352 40 353 264 237 246 306 296 303 285 270 266 278 258 247 254 279 287 290 293 290 282 277 273 270 255 268
137 163 201 142 6 229 20 22 3 40 12 328 324 334 322 317 61 39 350 322 326 346 319 290 290 286 292 295 289 285 281 281 274 274 276 275 275 277 276 275 273 271 251
176 165 32 19 10 4 337 344 182 219 266 234 257 281 320 49 5 329 293 281 281 279 286 290 292 291 302 305 312 309 307 294 287 309 294 285 279 277 277 275 275 275 275
141 143 120 285 354 341 339 332 326 223 229 239 223 226 217 283 290 283 269 289 273 214 254 287 298 320 320 320 306 299 302 300 315 298 302 304 301 301 289 273 270 273 268
146 21 273 305 317 298 333 318 311 317 323 333 208 231 227 244 262 270 269 296 299 214 266 295 313 298 293 280 282 278 282 282 270 269 272 266 276 294 291 280 270 269 272
219 242 279 287 278 347 283 281 279 285 297 307 304 227 194 211 229 241 244 260 295 300 308 312 312 305 301 294 284 287 289 283 285 290 283 291 275 255 275 283 286 279 285
214 233 274 298 289 287 298 292 293 279 276 288 302 312 301 200 293 312 308 238 258 279 303 303 304 304 299 301 301 286 278 288 290 300 301 295 287 280 258 270 277 271 269
286 262 206 263 274 284 311 296 281 287 279 285 284 203 87 311 295 278 292 317 321 319 297 296 290 295 298 291 288 286 282 286 293 284 274 286 295 284 251 251 266 285 281
275 274 274 259 266 274 261 291 290 276 280 292 307 287 169 259 289 342 314 307 323 305 290 289 287 295 291 292 299 302 296 292 291 299 299 290 291 292 286 298 292 279 277
288 292 295 288 281 275 260 248 270 291 288 290 287 309 319 318 320 338 329 309 290 284 301 289 288 293 297 298 294 295 296 296 299 307 300 295 293 290 285 284 284 277 283
296 308 302 298 295 297 277 281 294 257 279 282 316 320 314 324 327 341 325 318 303 295 287 282 287 298 306 311 308 296 299 333 319 292 289 279 277 278 274 270 267 278 283
317 310 305 300 293 296 285 255 267 297 272 315 319 318 326 334 333 340 318 319 290 303 302 300 294 297 303 305 296 300 307 306 293 286 285 275 269 273 267 267 270 271 272
330 326 314 301 313 302 298 321 288 283 306 321 328 322 331 330 340 309 322 304 303 304 297 289 284 289 293 287 286 297 295 288 297 290 289 280 272 270 266 258 257 260 264